Regional Weather Roundup
Issued by NWS

Home | Current Version | Previous Version | Graphics & Text | Print | Product List | Glossary Off
Versions: 1 2 3 4 5 6 7 8 9 10 11 12 13 14 15 16 17 18 19 20 21 22 23 24 25 26 27 28 29 30 31 32 33 34 35 36 37 38 39 40 41 42 43 44 45 46 47 48 49 50

000
ASUS43 KDMX 191207
RWRIA

WEATHER ROUNDUP FOR IOWA
NATIONAL WEATHER SERVICE DES MOINES IA
700 AM CDT SUN APR 19 2015

NOTE: "FAIR" INDICATES FEW OR NO CLOUDS BELOW 12,000 FEET WITH NO
SIGNIFICANT WEATHER AND/OR OBSTRUCTIONS TO VISIBILITY.

* - THESE STATIONS ARE NOT NWS STATIONS...THUS NOT UNDER NWS
QUALITY CONTROL.  THEY ALSO DO NOT REPORT WEATHER SUCH
AS PRECIPITATION OR FOG.

IAZ001>003-012>014-020>022-031>034-043>046-191300-
   NORTHWEST IOWA

CITY           SKY/WX    TMP DP  RH WIND       PRES   REMARKS
CARROLL *      CLOUDY    54  54 100 CALM      29.73S FOG
CHEROKEE *     CLOUDY    55  55 100 CALM      29.73R FOG
DENISON *      FOG       54  54 100 S5        29.71S VSB 0
LE MARS *      CLOUDY    55  55 100 NW7       29.74S FOG
ORANGE CITY *  CLOUDY   N/A N/A N/A W12       29.73R FOG
SHELDON *      CLOUDY    54  54 100 SW6       29.71S FOG
SIOUX CITY     CLOUDY    55  53  93 NW15      29.73S FOG
6HR MIN TEMP:  54; 6HR MAX TEMP:  55;

SPENCER        CLOUDY    54  52  93 SW3       29.73S
6HR MIN TEMP:  52; 6HR MAX TEMP:  54; 6HR PCP:  0.02;

STORM LAKE *   FOG       54  54 100 SW5       29.74R VSB 0
$$

IAZ055>058-069>071-079>083-090>094-191300-
   SOUTHWEST IOWA

CITY           SKY/WX    TMP DP  RH WIND       PRES   REMARKS
ATLANTIC *     FOG       55  55 100 CALM      29.73S VSB 0
AUDUBON *      FOG       55  52  88 CALM      29.73F VSB 0
CLARINDA *     CLOUDY    57  57 100 CALM      29.73F FOG
COUNCIL BLFS * FOG       54  54 100 SE5       29.72F VSB 0
CRESTON *      FOG       55  55 100 CALM      29.74S VSB 1/4
HARLAN  *      FOG       55  55 100 W3        29.75F VSB 0
LAMONI         FOG       59  57  93 NE5       29.73S VSB 1/4
6HR MIN TEMP:  57; 6HR MAX TEMP:  59; 6HR PCP:  0.01;

RED OAK *      FOG       55  55 100 CALM      29.73S VSB 0
SHENANDOAH *   FOG       55  55 100 CALM      29.73S VSB 0
$$

IAZ047>049-059>061-072>074-084-191300-
   CENTRAL IOWA

CITY           SKY/WX    TMP DP  RH WIND       PRES   REMARKS
AMES           CLOUDY    55  54  96 CALM      29.74F FOG
6HR MIN TEMP:  55; 6HR MAX TEMP:  57;

ANKENY *       CLOUDY    55  55 100 CALM      29.74F FOG
CHARITON *     FOG       55  55 100 NE5       29.75R VSB 3/4
DES MOINES     LGT RAIN  58  56  93 E5        29.74F FOG
6HR MIN TEMP:  58; 6HR MAX TEMP:  59; 6HR PCP:  0.02;

GRINNELL*      FOG       54  54 100 E7        29.76S VSB 3/4
KNOXVILLE *    CLOUDY    55  55 100 E5        29.74S FOG
MARSHALLTOWN   FOG       55  54  96 E6        29.75F VSB 1
6HR MIN TEMP:  55; 6HR MAX TEMP:  57; 6HR PCP:  0.27;

PELLA *        DRIZZLE   55  55 100 CALM      29.76S
PERRY *        CLOUDY    55  55 100 E5        29.73F FOG
$$

IAZ004>006-015-016-023>025-035-036-191300-
   NORTH CENTRAL IOWA

CITY           SKY/WX    TMP DP  RH WIND       PRES   REMARKS
ALGONA *       FOG       55  55 100 SE7       29.74S VSB 0
CLARION *      CLOUDY    55  55 100 S9        29.74S FOG
ESTHERVILLE    FOG       52  52 100 SW7       29.72S VSB 1/4
6HR MIN TEMP:  51; 6HR MAX TEMP:  54; 6HR PCP:  0.05;

FORT DODGE *   CLOUDY    54  52  94 SE5       29.74F VSB 3/4
MASON CITY     CLOUDY    53  50  90 S9        29.76S FOG
6HR MIN TEMP:  52; 6HR MAX TEMP:  56; 6HR PCP:  0.01;

FOREST CITY *  DRIZZLE   52  52 100 SE8       29.74F
IOWA FALLS *   FOG       54  54 100 SE3       29.77R VSB 1
$$

IAZ007>011-017>019-026>030-037>042-050>054-066-191300-
   NORTHEAST IOWA

CITY           SKY/WX    TMP DP  RH WIND       PRES   REMARKS
CEDAR RAPIDS   CLOUDY    50  45  83 VRB3      29.76F
6HR MIN TEMP:  50; 6HR MAX TEMP:  57; 6HR PCP: TRACE;

CHARLES CITY * MOCLDY    50  48  93 SE7       29.77S
CLINTON *      MOCLDY    54  41  62 E9        29.82F
DECORAH *      CLOUDY    50  39  66 SE12G17   29.77S
DUBUQUE        MOCLDY    53  41  63 SE6       29.80F
6HR MIN TEMP:  51; 6HR MAX TEMP:  55;

MONTICELLO *   CLOUDY    54  45  71 CALM      29.79F
OELWEIN *      CLOUDY    50  43  76 SE10      29.78S
WATERLOO       CLOUDY    52  44  74 SE7       29.77R
6HR MIN TEMP:  51; 6HR MAX TEMP:  56; 6HR PCP:  0.38;

$$

IAZ064-065-067-068-078-191300-
   EAST CENTRAL IOWA

CITY           SKY/WX    TMP DP  RH WIND       PRES   REMARKS
DAVENPORT      MOCLDY    52  41  66 E9        29.78F
6HR MIN TEMP:  48; 6HR MAX TEMP:  55;

IOWA CITY      CLOUDY    53  47  79 NE5       29.78F
6HR MIN TEMP:  52; 6HR MAX TEMP:  59; 6HR PCP:  0.11;

MT. PLEASANT * LGT RAIN  56  55  96 NE6       29.75F
MUSCATINE *    MOCLDY    54  45  71 NE3       29.77S
QUAD CITIES    MOCLDY    53  42  66 E7        29.77F
6HR MIN TEMP:  50; 6HR MAX TEMP:  56;

$$

IAZ062-063-075>077-085>089-095>099-191300-
   SOUTHEAST IOWA

CITY           SKY/WX    TMP DP  RH WIND       PRES   REMARKS
BURLINGTON     MOCLDY    56  49  77 E7        29.75F
6HR MIN TEMP:  56; 6HR MAX TEMP:  65; 6HR PCP:  0.06;

FAIRFIELD *    CLOUDY    59  54  82 CALM      29.73S
FORT MADISON * MOCLDY    55  54  94 NE5       29.75F
KEOKUK *       CLOUDY    59  55  88 NE7       29.72F
OSKALOOSA *    DRIZZLE   56  55  96 NE3       29.75F
CENTERVILLE *  LGT RAIN  55  55 100 CALM      29.74F
OTTUMWA        CLOUDY    56  55  97 N5        29.74S FOG
6HR MIN TEMP:  54; 6HR MAX TEMP:  59; 6HR PCP:  0.02;

WASHINGTON *   CLOUDY    55  55 100 E7        29.75F
$$

ABBREVIATIONS USED IN REMARKS
   TC - TEMPERATURES IN CELSIUS
  WCI - WIND CHILL INDEX
   HX - HEAT INDEX
  VSB - VISIBILITY
$$




USA.gov is the U.S. government's official web portal to all federal, state and local government web resources and services.